Lid_Strength_Index
1 4 5 5 9 10 10 9 7 7 6 4 5 7 6 5 6 6 1 -0 -0 -0 -1 -1 -1 -1 -1 -1 -1 -1 -1 -1 -1 -1 -1 -1 -1 -1 -1 -1 -1 -1 -1 -1 -2 -2 -2 -2 -2
3 5 6 7 11 11 10 10 10 7 5 3 4 6 6 7 3 3 1 -0 0 -1 -1 -1 -1 -1 -1 -1 -1 -1 -1 -1 -1 -1 -1 -1 -1 -1 -1 -1 -1 -1 -1 -2 -2 -2 -2 -2 -2
2 4 7 9 10 11 11 10 9 7 5 4 5 5 6 4 2 2 0 -0 -0 -1 -1 -1 -1 -1 -1 -1 -1 -1 -1 -1 -1 -1 -1 -1 -1 -1 -1 -1 -1 -1 -2 -2 -2 -2 -2 -2 -2
3 4 7 10 11 11 11 9 8 7 5 4 4 6 5 2 2 1 -0 -0 0 -0 -1 -1 -1 -1 -1 -1 -1 -1 -1 -1 -1 -1 -1 -1 -1 -1 -1 -1 -1 -2 -2 -2 -2 -2 -2 -2 -2
3 4 9 10 10 10 9 9 8 8 6 4 4 5 4 2 0 0 0 -0 1 -0 -1 -1 -0 -1 -1 -1 -1 -1 -1 -1 -1 -1 -1 -1 -1 -1 -1 -1 -1 -2 -2 -2 -2 -2 -2 -2 -2
5 5 10 11 10 9 9 9 8 8 6 4 4 4 4 1 1 1 0 -0 1 -0 -1 -1 -1 -1 -1 -1 -1 -1 -1 -1 -1 -1 -1 -1 -1 -1 -1 -1 -1 -2 -2 -2 -2 -2 -2 -2 -2
5 7 9 9 10 10 9 8 7 7 7 5 3 5 3 3 1 0 0 -0 0 -1 -1 -1 -1 -1 -1 -1 -1 -1 -1 -1 -1 -1 -1 -1 -1 -1 -1 -1 -1 -1 -2 -2 -2 -2 -2 -2 -2
4 5 8 8 10 10 8 8 6 6 6 3 2 5 5 4 2 0 0 0 -0 -0 -1 -1 -1 -1 -1 -1 -1 -1 -1 -1 -1 -1 -1 -1 -1 -1 -1 -1 -1 -1 -2 -2 -2 -2 -2 -2 -2
2 7 8 8 8 8 7 8 6 5 4 4 3 3 2 3 3 1 1 1 0 0 -0 -1 -1 -1 -1 -1 -1 -1 -1 -1 -1 -1 -1 -1 -2 -2 -2 -2 -2 -1 -1 -2 -2 -2 -2 -2 -2
5 7 7 5 5 6 6 7 6 7 5 4 3 2 2 3 3 3 2 2 1 1 0 -0 -1 -1 -1 -1 -2 -2 -1 -1 -2 -2 -2 -2 -2 -2 -2 -2 -2 -1 -1 -1 -2 -2 -2 -1 -2
5 7 5 5 5 4 5 6 5 7 7 4 4 3 3 3 4 4 3 2 1 0 0 -0 -1 -1 -1 -1 -1 -1 -1 -1 -1 -2 -2 -2 -2 -2 -2 -1 -1 -2 -1 -2 -2 -2 -2 -2 -2
6 5 5 5 4 5 5 5 6 6 6 6 4 4 4 4 4 4 4 3 2 1 0 -0 -0 -1 -1 -1 -1 -1 -1 -1 -1 -1 -2 -1 -1 -1 -1 -1 -1 -2 -2 -2 -2 -1 -2 -2 -2
6 5 5 5 4 5 5 7 7 7 6 5 4 4 4 4 4 4 4 3 2 2 0 -0 -1 -0 -0 -0 -1 -1 -1 -1 -1 -1 -2 -1 -1 -1 -1 -1 -1 -1 -1 -1 -1 -1 -1 -1 -1
5 5 5 6 6 6 8 7 7 7 6 5 5 4 4 5 5 5 4 4 3 3 3 -0 -0 -1 -1 -0 -0 -0 -1 -1 -1 -1 -2 -2 -1 -1 -1 -1 -1 -1 -1 -2 -1 -1 -1 -1 -1
5 7 6 6 7 8 8 10 9 6 7 8 6 5 4 5 5 5 5 5 4 3 3 2 0 -1 -1 -0 -1 -1 -1 -1 -1 -1 -2 -2 -2 -1 -1 -1 -1 -1 -2 -2 -1 -1 -1 -1 -1
7 7 9 6 6 7 9 10 9 7 8 9 8 6 6 5 5 5 5 5 4 3 3 1 2 -0 -0 -0 -0 -0 -1 -1 -1 -1 -1 -2 -2 -2 -1 -1 -1 -1 -2 -1 -1 -0 -0 -0 -0
8 10 9 8 7 7 9 10 7 8 8 9 9 8 7 6 6 5 5 4 4 3 2 2 0 1 -0 -1 -0 -0 -1 -1 -1 -1 -1 -1 -1 -2 -1 -1 -1 -2 -1 -0 -0 -0 -0 0 0
10 10 10 10 8 7 8 9 8 7 7 8 8 8 7 7 6 6 5 3 3 3 2 2 2 0 -0 -0 -1 -0 0 -0 -1 -0 -1 -1 -1 -1 -1 -1 -1 -1 -0 0 -0 -0 -0 0 0
9 9 10 9 7 8 8 8 8 7 7 7 8 8 8 7 6 6 4 4 4 3 2 2 2 0 1 2 1 0 1 0 0 -0 -1 -1 -1 -1 -1 -1 -0 -1 0 0 -1 0 1 1 0
9 10 10 9 8 8 8 9 7 7 7 6 6 6 6 6 6 5 5 4 4 4 3 1 1 1 1 2 -0 0 0 0 -0 -0 -1 -1 -1 -1 -0 -1 0 0 1 0 0 0 1 1 0
8 9 9 9 9 8 9 10 8 7 6 5 5 4 4 5 5 3 4 4 3 4 3 3 2 1 1 -0 0 -0 -0 0 1 0 0 -0 -1 -1 -1 -0 0 0 -0 1 0 0 1 2 1
10 8 8 9 10 11 9 13 9 8 8 7 6 5 5 4 3 3 3 2 3 3 3 2 1 1 1 -1 -0 -0 1 2 1 0 -0 -0 -1 -0 -0 -0 -0 -0 -0 0 0 0 1 1 2
9 8 9 9 10 10 10 12 9 8 8 7 6 5 4 4 4 3 3 2 1 1 2 2 1 0 0 -0 -0 1 0 1 0 0 -0 -0 -0 -0 -0 -0 -0 -0 0 0 0 0 1 1 1
7 8 8 8 9 13 10 11 10 9 8 7 6 5 5 4 4 3 3 2 2 1 1 0 1 1 0 0 -0 0 1 1 1 1 1 1 1 0 -0 -0 -0 -0 0 0 0 0 0 1 1
7 9 12 13 13 13 10 11 9 7 7 6 7 6 5 4 4 3 3 3 2 1 1 1 1 1 0 0 0 0 0 0 1 1 1 1 1 1 0 0 0 0 0 -0 -0 0 0 0 1
8 9 12 16 15 13 10 13 9 6 5 6 6 5 4 4 4 3 3 2 2 1 1 1 1 1 1 0 0 0 0 1 1 0 1 1 1 1 -0 0 0 -0 -0 -0 -0 0 0 0 1
9 10 8 11 11 13 11 9 7 6 6 6 5 5 4 4 3 3 3 2 1 1 1 1 1 1 0 0 0 0 0 0 1 0 0 0 0 0 -0 -0 0 0 -0 -0 0 0 1 0 0
7 7 11 10 15 16 12 11 10 8 7 6 6 5 4 3 3 3 2 2 1 1 1 0 0 1 0 0 0 0 0 0 0 0 1 0 0 -0 0 0 0 0 0 0 0 0 0 1 1
9 9 9 10 12 15 15 11 7 7 6 6 5 4 4 3 3 3 2 2 1 1 1 1 1 1 1 0 0 0 0 0 0 1 1 0 0 0 0 0 0 0 0 0 0 0 1 1 1
7 8 8 13 13 12 12 12 6 6 5 5 5 4 4 3 3 2 2 2 2 1 1 1 1 1 1 1 0 0 0 0 1 1 1 0 0 0 0 0 1 1 1 0 1 1 1 1 1